Location: Observatorio del Centro Ecologico de Sonora
(29.0667°N, 110.9333°W)
Time: 04:40:02
(UTC-07:00)

ISS - Visible Passes

Search period start: 18 April 2015 00:00
Search period end: 28 April 2015 00:00
Orbit: 396 x 403 km, 51.6° (Epoch: 18 April)

Date Brightness Start Highest point End Pass type
(mag) Time Alt. Az. Time Alt. Az. Time Alt. Az.
19 Apr -0.8 20:37:47 10° N 20:38:49 14° NNE 20:38:49 14° NNE visible
20 Apr 0.0 21:19:13 10° NW 21:19:41 13° NW 21:19:41 13° NW visible
21 Apr -2.3 20:25:24 10° NNW 20:28:01 36° NNE 20:28:01 36° NNE visible
22 Apr -1.4 19:31:58 10° N 19:34:16 18° NE 19:36:23 11° E visible
22 Apr -0.5 21:07:52 10° WNW 21:08:56 17° W 21:08:56 17° W visible
23 Apr -3.3 20:13:25 10° NW 20:16:38 70° SW 20:17:20 49° SSE visible
24 Apr -2.8 19:19:23 10° NNW 19:22:30 43° NE 19:25:36 10° ESE visible
25 Apr -1.3 20:01:51 10° WNW 20:04:30 23° SW 20:06:49 12° S visible
